Tracking 18852 objects as of 24-Nov-2017
HD Live streaming from Space Station
objects crossing your sky now

OPS 8579 (DMSP 5B F5)

Track OPS 8579 (DMSP 5B F5) now!
10-day predictions
OPS 8579 (DMSP 5B F5) is classified as:


NORAD ID: 7218
Int'l Code: 1974-015A
Perigee: 755.5 km
Apogee: 838.3 km
Inclination: 99.0 °
Period: 100.7 minutes
Semi major axis: 7167 km
RCS: 1.341 m2 (large)
Launch date: March 16, 1974
Source: United States (US)
Launch site: AIR FORCE WESTERN TEST RANGE (AFWTR)
aabbcc
Your satellite tracking list
Your tracking list is empty




NASA's NSSDC Master Catalog

Two Line Element Set (TLE):
1  7218U 74015A   17328.26576153 +.00000066 +00000-0 +42532-4 0  9993
2  7218 098.9890 252.7138 0057754 024.7846 335.6090 14.30580718273724
Source of the keplerian elements: AFSPC